Вернуться в каталог

STARLINK-2111

АктивенСвязьVLEO
NORAD 47390·PAYLOAD·🇺🇸 United States

Запущен Jan 20, 2021 с Cape Canaveral Space Force Station

Loading…

Ближайшие Пролёты (ближайшие 24 часа)

TLE

СвежийSource: CelesTrak SupGP

Эпоха: Sep 15, 2026, 02:48 UTC

1 47390C 21005AT  26258.11715278 -.00016372  00000+0 -52656-3 0  2581
2 47390  53.1578 264.7803 0001235  91.2026 292.3835 15.31704838    18

Отслеживайте STARLINK-2111 в реальном времени с AllMySat

Download on the App Store